Multibeam Report for MGL1303


Ship Name: Marcus G. Langseth
Chief Scientist: None
Source Organization: Rolling Deck to Repository
Start Date: 2013-03-25
End Date: 2013-03-28


View ISO Metadata

Visit the full NCEI Bathymetry Viewer


Multibeam Bathymetry

Cruise Details

Project: Equipment Testing
Instrument: Kongsberg EM122

Data Quality

Number of Files: 109
Number of Records: 945269
BATHYMETRY DATA Quantity Percentage
Number of Beams 408356208 100%
Number of Good Beams 399011420 97.71%
Number of Zero Beams 0 0%
Number of Flagged Beams 9344788 2.29%
AMPLITUDE DATA Quantity Percentage
Number of Beams 408356208 100%
Number of Good Beams 399011420 97.71%
Number of Zero Beams 0 0%
Number of Flagged Beams 9344788 2.29%
SIDESCAN DATA Quantity Percentage
Number of Pixels 967955456 100%
Number of Good Pixels 815165504 84.22%
Number of Zero Pixels 0 0%
Number of Flagged Pixels 152789952 15.78%

Navigation Totals

Total Time: 51.5083 hours
Total Track Length: 491.6411 km
Average Speed: 9.545 km/hr (5.1539 knots)

Cruise Bounds

Northern Extent: 29.290525
Southern Extent: 27.96114
Western Extent: -95.19824
Eastern Extent: -94.41166

Limits

Minimum Sonar Depth 4.6621 Maximum Sonar Depth 7.7051
Minimum Altitude 0 Maximum Altitude 83.3083
Minimum Depth 11.6388 Maximum Depth 93.0943
Minimum Amplitude 0 Maximum Amplitude 77.9
Minimum Sidescan 0 Maximum Sidescan 79.9

File Information

Full Resolution Bathymetry as collected (raw): 106

Files File Size Description
0000_20130325_201746_Langseth.all.mb58.gz 5.93MB Kongsberg multibeam vendor format
0001_20130325_203606_Langseth.all.mb58.gz 11.11MB Kongsberg multibeam vendor format
0002_20130325_213454_Langseth.all.mb58.gz 267.81MB Kongsberg multibeam vendor format
0003_20130325_220454_Langseth.all.mb58.gz 269.10MB Kongsberg multibeam vendor format
0004_20130325_223454_Langseth.all.mb58.gz 268.08MB Kongsberg multibeam vendor format
0005_20130325_230454_Langseth.all.mb58.gz 267.20MB Kongsberg multibeam vendor format
0006_20130325_233454_Langseth.all.mb58.gz 264.73MB Kongsberg multibeam vendor format
0007_20130326_000454_Langseth.all.mb58.gz 269.34MB Kongsberg multibeam vendor format
0008_20130326_003454_Langseth.all.mb58.gz 253.82MB Kongsberg multibeam vendor format
0009_20130326_010454_Langseth.all.mb58.gz 239.61MB Kongsberg multibeam vendor format
0010_20130326_013454_Langseth.all.mb58.gz 234.48MB Kongsberg multibeam vendor format
0011_20130326_020454_Langseth.all.mb58.gz 230.91MB Kongsberg multibeam vendor format
0012_20130326_023454_Langseth.all.mb58.gz 230.82MB Kongsberg multibeam vendor format
0013_20130326_030454_Langseth.all.mb58.gz 224.79MB Kongsberg multibeam vendor format
0014_20130326_033454_Langseth.all.mb58.gz 220.62MB Kongsberg multibeam vendor format
0015_20130326_040454_Langseth.all.mb58.gz 216.65MB Kongsberg multibeam vendor format
0016_20130326_043454_Langseth.all.mb58.gz 212.25MB Kongsberg multibeam vendor format
0017_20130326_050454_Langseth.all.mb58.gz 209.40MB Kongsberg multibeam vendor format
0018_20130326_053454_Langseth.all.mb58.gz 205.97MB Kongsberg multibeam vendor format
0019_20130326_060454_Langseth.all.mb58.gz 201.66MB Kongsberg multibeam vendor format
0020_20130326_063454_Langseth.all.mb58.gz 196.28MB Kongsberg multibeam vendor format
0021_20130326_070454_Langseth.all.mb58.gz 190.49MB Kongsberg multibeam vendor format
0022_20130326_073454_Langseth.all.mb58.gz 185.15MB Kongsberg multibeam vendor format
0023_20130326_080454_Langseth.all.mb58.gz 181.48MB Kongsberg multibeam vendor format
0024_20130326_083454_Langseth.all.mb58.gz 178.01MB Kongsberg multibeam vendor format
0025_20130326_090454_Langseth.all.mb58.gz 175.11MB Kongsberg multibeam vendor format
0026_20130326_093454_Langseth.all.mb58.gz 172.10MB Kongsberg multibeam vendor format
0027_20130326_100454_Langseth.all.mb58.gz 174.93MB Kongsberg multibeam vendor format
0028_20130326_103454_Langseth.all.mb58.gz 175.70MB Kongsberg multibeam vendor format
0029_20130326_110454_Langseth.all.mb58.gz 171.47MB Kongsberg multibeam vendor format
0030_20130326_113454_Langseth.all.mb58.gz 164.21MB Kongsberg multibeam vendor format
0031_20130326_120454_Langseth.all.mb58.gz 149.14MB Kongsberg multibeam vendor format
0032_20130326_123454_Langseth.all.mb58.gz 160.12MB Kongsberg multibeam vendor format
0033_20130326_130454_Langseth.all.mb58.gz 160.15MB Kongsberg multibeam vendor format
0034_20130326_133454_Langseth.all.mb58.gz 160.26MB Kongsberg multibeam vendor format
0035_20130326_140454_Langseth.all.mb58.gz 159.98MB Kongsberg multibeam vendor format
0036_20130326_143454_Langseth.all.mb58.gz 158.64MB Kongsberg multibeam vendor format
0037_20130326_150454_Langseth.all.mb58.gz 159.97MB Kongsberg multibeam vendor format
0038_20130326_153454_Langseth.all.mb58.gz 158.75MB Kongsberg multibeam vendor format
0039_20130326_160454_Langseth.all.mb58.gz 159.24MB Kongsberg multibeam vendor format
0040_20130326_163454_Langseth.all.mb58.gz 144.76MB Kongsberg multibeam vendor format
0041_20130326_170812_Langseth.all.mb58.gz 210.64MB Kongsberg multibeam vendor format
0042_20130326_173810_Langseth.all.mb58.gz 216.09MB Kongsberg multibeam vendor format
0043_20130326_180810_Langseth.all.mb58.gz 217.23MB Kongsberg multibeam vendor format
0044_20130326_183810_Langseth.all.mb58.gz 209.84MB Kongsberg multibeam vendor format
0045_20130326_190810_Langseth.all.mb58.gz 200.73MB Kongsberg multibeam vendor format
0046_20130326_193810_Langseth.all.mb58.gz 192.69MB Kongsberg multibeam vendor format
0047_20130326_200810_Langseth.all.mb58.gz 182.95MB Kongsberg multibeam vendor format
0048_20130326_203810_Langseth.all.mb58.gz 180.04MB Kongsberg multibeam vendor format
0049_20130326_210810_Langseth.all.mb58.gz 176.67MB Kongsberg multibeam vendor format
0050_20130326_213810_Langseth.all.mb58.gz 172.22MB Kongsberg multibeam vendor format
0051_20130326_220810_Langseth.all.mb58.gz 171.22MB Kongsberg multibeam vendor format
0052_20130326_223810_Langseth.all.mb58.gz 167.96MB Kongsberg multibeam vendor format
0053_20130326_230810_Langseth.all.mb58.gz 170.08MB Kongsberg multibeam vendor format
0054_20130326_233810_Langseth.all.mb58.gz 171.84MB Kongsberg multibeam vendor format
0055_20130327_000810_Langseth.all.mb58.gz 177.80MB Kongsberg multibeam vendor format
0056_20130327_003810_Langseth.all.mb58.gz 180.26MB Kongsberg multibeam vendor format
0057_20130327_010810_Langseth.all.mb58.gz 183.43MB Kongsberg multibeam vendor format
0058_20130327_013810_Langseth.all.mb58.gz 186.87MB Kongsberg multibeam vendor format
0059_20130327_020810_Langseth.all.mb58.gz 189.51MB Kongsberg multibeam vendor format
0060_20130327_023810_Langseth.all.mb58.gz 192.35MB Kongsberg multibeam vendor format
0061_20130327_030810_Langseth.all.mb58.gz 189.67MB Kongsberg multibeam vendor format
0062_20130327_033810_Langseth.all.mb58.gz 184.57MB Kongsberg multibeam vendor format
0063_20130327_040810_Langseth.all.mb58.gz 181.08MB Kongsberg multibeam vendor format
0064_20130327_043810_Langseth.all.mb58.gz 178.06MB Kongsberg multibeam vendor format
0065_20130327_050810_Langseth.all.mb58.gz 175.35MB Kongsberg multibeam vendor format
0066_20130327_053810_Langseth.all.mb58.gz 171.99MB Kongsberg multibeam vendor format
0067_20130327_060810_Langseth.all.mb58.gz 175.34MB Kongsberg multibeam vendor format
0068_20130327_063810_Langseth.all.mb58.gz 174.84MB Kongsberg multibeam vendor format
0069_20130327_070810_Langseth.all.mb58.gz 170.14MB Kongsberg multibeam vendor format
0070_20130327_073810_Langseth.all.mb58.gz 164.12MB Kongsberg multibeam vendor format
0071_20130327_080810_Langseth.all.mb58.gz 159.50MB Kongsberg multibeam vendor format
0072_20130327_083810_Langseth.all.mb58.gz 159.48MB Kongsberg multibeam vendor format
0073_20130327_090810_Langseth.all.mb58.gz 160.43MB Kongsberg multibeam vendor format
0074_20130327_093810_Langseth.all.mb58.gz 159.98MB Kongsberg multibeam vendor format
0075_20130327_100810_Langseth.all.mb58.gz 161.01MB Kongsberg multibeam vendor format
0076_20130327_103810_Langseth.all.mb58.gz 161.51MB Kongsberg multibeam vendor format
0077_20130327_110810_Langseth.all.mb58.gz 161.76MB Kongsberg multibeam vendor format
0078_20130327_113810_Langseth.all.mb58.gz 162.03MB Kongsberg multibeam vendor format
0079_20130327_120810_Langseth.all.mb58.gz 162.64MB Kongsberg multibeam vendor format
0080_20130327_123810_Langseth.all.mb58.gz 162.09MB Kongsberg multibeam vendor format
0081_20130327_130810_Langseth.all.mb58.gz 161.00MB Kongsberg multibeam vendor format
0082_20130327_133810_Langseth.all.mb58.gz 160.26MB Kongsberg multibeam vendor format
0083_20130327_140810_Langseth.all.mb58.gz 159.99MB Kongsberg multibeam vendor format
0084_20130327_143810_Langseth.all.mb58.gz 159.93MB Kongsberg multibeam vendor format
0085_20130327_150810_Langseth.all.mb58.gz 159.91MB Kongsberg multibeam vendor format
0086_20130327_153809_Langseth.all.mb58.gz 159.68MB Kongsberg multibeam vendor format
0087_20130327_160810_Langseth.all.mb58.gz 159.42MB Kongsberg multibeam vendor format
0088_20130327_163810_Langseth.all.mb58.gz 159.38MB Kongsberg multibeam vendor format
0089_20130327_170809_Langseth.all.mb58.gz 159.93MB Kongsberg multibeam vendor format
0090_20130327_173810_Langseth.all.mb58.gz 159.76MB Kongsberg multibeam vendor format
0091_20130327_180809_Langseth.all.mb58.gz 160.08MB Kongsberg multibeam vendor format
0092_20130327_183809_Langseth.all.mb58.gz 159.65MB Kongsberg multibeam vendor format
0093_20130327_190810_Langseth.all.mb58.gz 159.56MB Kongsberg multibeam vendor format
0094_20130327_193810_Langseth.all.mb58.gz 158.71MB Kongsberg multibeam vendor format
0095_20130327_200810_Langseth.all.mb58.gz 205.27MB Kongsberg multibeam vendor format
0096_20130327_203809_Langseth.all.mb58.gz 245.72MB Kongsberg multibeam vendor format
0097_20130327_210810_Langseth.all.mb58.gz 265.71MB Kongsberg multibeam vendor format
0098_20130327_213809_Langseth.all.mb58.gz 267.90MB Kongsberg multibeam vendor format
0099_20130327_220809_Langseth.all.mb58.gz 269.04MB Kongsberg multibeam vendor format
0100_20130327_223809_Langseth.all.mb58.gz 268.65MB Kongsberg multibeam vendor format
0101_20130327_230809_Langseth.all.mb58.gz 268.03MB Kongsberg multibeam vendor format
0102_20130327_233809_Langseth.all.mb58.gz 266.89MB Kongsberg multibeam vendor format
0103_20130328_000809_Langseth.all.mb58.gz 268.36MB Kongsberg multibeam vendor format
0104_20130328_003809_Langseth.all.mb58.gz 267.12MB Kongsberg multibeam vendor format
0105_20130328_010809_Langseth.all.mb58.gz 15.38MB Kongsberg multibeam vendor format

Metadata Files: 2

Files File Size Description
MGL1303_Multibeam.xml NGDC created ISO metadata
em122_bag_info.tar.gz 7.8KB Additional cruise information

Water Column Sonar Data

Water Column Sonar Data Available: WCSD Map Viewer